Home > Weather > Santander > Past weeks

Flag for Spain Weather for the Past 2 Weeks in Santander, Spain

Now
66 °F

Sunny.


Feels Like: 66 °F
Forecast: 56 / 66 °F
Wind: No wind

Location: Santander / Parayas

Current Time: May 5, 2016 at 11:26:47 AM

Latest Report: May 5, 2016 at 11:00 AM


Visibility: 10 mi

Pressure: 29.83 "Hg

Humidity: 68%

Dew Point: 55 °F

Location of SantanderLocation

Historic Weather in Santander — Graph

°F

Santander Temperature Yesterday

Maximum temperature yesterday: 68 °F (at 1:00 PM)
Minimum temperature yesterday: 48 °F (at 7:30 AM)
Average temperature yesterday: 61 °F

High & Low Weather Summary for the Past Weeks

 TemperatureHumidityPressure
High70 °F (Apr 20, 3:00 PM)100% (Apr 21, 6:00 AM)30.48 "Hg (Apr 21, 6:00 AM)
Low41 °F (Apr 25, 5:30 AM)48% (May 1, 5:00 PM)29.83 "Hg (May 5, 9:00 AM)
Average55 °F73%30.14 "Hg
* Reported Apr 20 10:00 AM — May 5 10:00 AM, Santander, Weather by CustomWeather, © 2016

Note: Actual official high and low records may vary slightly from our data, if they occured in-between our weather recording intervals... More about our weather records

Advertising

Santander Weather History for the Previous 24 Hours

Scroll right to see more
 ConditionsComfort  
Time TempWeatherWind HumidityBarometerVisibility
10:00 AM
Thu, May 5
61 °FSunny.No wind77%29.86 "Hg10 mi
9:30 AM59 °FSunny.No wind82%29.83 "Hg10 mi
9:00 AM55 °FSunny.No wind94%29.83 "Hg10 mi
8:30 AM54 °FSunny.No wind94%29.86 "Hg10 mi
8:00 AM52 °FClear.1 mph100%29.86 "Hg10 mi
7:30 AM50 °FClear.No wind94%29.86 "Hg10 mi
7:00 AM52 °FClear.No wind94%29.86 "Hg10 mi
6:30 AM52 °FClear.No wind94%29.86 "Hg10 mi
6:00 AM52 °FClear.No wind94%29.86 "Hg10 mi
5:30 AM52 °FClear.No wind94%29.86 "Hg10 mi
11:00 PM
Wed, May 4
59 °FClear.No wind72%29.95 "Hg10 mi
10:30 PM59 °FClear.No wind77%29.95 "Hg10 mi
10:00 PM59 °FSunny.2 mph77%29.95 "Hg10 mi
9:30 PM61 °FPassing clouds.5 mph72%29.95 "HgN/A
9:00 PM61 °FPassing clouds.5 mph72%29.95 "HgN/A
8:30 PM63 °FPassing clouds.8 mph68%29.95 "HgN/A
8:00 PM64 °FPassing clouds.8 mph64%29.95 "HgN/A
7:30 PM64 °FPassing clouds.9 mph68%29.95 "HgN/A
7:00 PM64 °FPassing clouds.8 mph68%29.95 "HgN/A
6:30 PM64 °FPassing clouds.10 mph68%29.95 "HgN/A
6:00 PM64 °FPassing clouds.12 mph68%29.95 "HgN/A
5:30 PM66 °FPassing clouds.9 mph64%29.98 "HgN/A
5:00 PM68 °FPassing clouds.10 mph60%29.98 "HgN/A
4:30 PM68 °FPassing clouds.10 mph60%29.98 "HgN/A
4:00 PM66 °FPassing clouds.14 mph64%30.01 "HgN/A
3:30 PM64 °FPassing clouds.12 mph68%30.01 "HgN/A
3:00 PM64 °FPassing clouds.13 mph68%30.01 "HgN/A
2:30 PM64 °FPassing clouds.10 mph68%30.04 "HgN/A
2:00 PM64 °FPassing clouds.13 mph64%30.04 "HgN/A
1:30 PM66 °FPassing clouds.9 mph64%30.04 "HgN/A
1:00 PM68 °FPassing clouds.7 mph53%30.07 "HgN/A
12:30 PM66 °FPassing clouds.8 mph52%30.07 "HgN/A
12:00 PM66 °FPassing clouds.9 mph49%30.07 "HgN/A
11:30 AM64 °FPassing clouds.12 mph52%30.09 "HgN/A
11:00 AM64 °FPassing clouds.13 mph52%30.09 "HgN/A
Weather by CustomWeather, © 2016

See weather overviewHow to use our weather pages